| time (UTC) | temp C | wind direction | speed KPH | gust KPH | rain 1hr cm | rain 24hr cm | rain mn cm | humidity % | barometer mb |
| 20260902163536 | 20 | 11 | 0.0 | 0.0 | 0.00 | 0.00 | 0.00 | 91 | 1024.3 |
| 20260902163033 | 20 | 340 | 0.0 | 0.0 | 0.00 | 0.00 | 0.00 | 91 | 1024.5 |
| 20260902162528 | 20 | 341 | 0.0 | 0.0 | 0.00 | 0.00 | 0.00 | 93 | 1024.5 |
| 20260902162023 | 19 | 346 | 0.0 | 0.0 | 0.00 | 0.00 | 0.00 | 90 | 1024.4 |
| 20260902161518 | 19 | 358 | 0.0 | 0.0 | 0.00 | 0.00 | 0.00 | 91 | 1024.4 |
| 20260902161014 | 19 | 231 | 3.2 | 3.2 | 0.00 | 0.00 | 0.00 | 87 | 1024.4 |
| 20260902160510 | 19 | 295 | 0.0 | 0.0 | 0.00 | 0.00 | 0.00 | 86 | 1024.6 |
| 20260902160010 | 20 | 338 | 1.6 | 1.6 | 0.00 | 0.00 | 0.00 | 88 | 1024.4 |
| 20260902155503 | 20 | 343 | 0.0 | 0.0 | 0.00 | 0.00 | 0.00 | 94 | 1024.6 |
| 20260902155002 | 20 | 345 | 0.0 | 0.0 | 0.00 | 0.00 | 0.00 | 95 | 1024.4 |
| 20260902154457 | 19 | 343 | 0.0 | 1.6 | 0.00 | 0.00 | 0.00 | 86 | 1024.4 |
| 20260902153952 | 19 | 8 | 0.0 | 0.0 | 0.00 | 0.00 | 0.00 | 89 | 1024.4 |
| 20260902153450 | 19 | 350 | 0.0 | 0.0 | 0.00 | 0.00 | 0.00 | 92 | 1024.2 |
| 20260902152946 | 19 | 343 | 0.0 | 0.0 | 0.00 | 0.00 | 0.00 | 92 | 1024.2 |
| 20260902152442 | 19 | 1 | 0.0 | 0.0 | 0.00 | 0.00 | 0.00 | 92 | 1024.0 |
| 20260902151937 | 19 | 12 | 0.0 | 0.0 | 0.00 | 0.00 | 0.00 | 89 | 1024.1 |
| 20260902151433 | 19 | 351 | 1.6 | 1.6 | 0.00 | 0.00 | 0.00 | 89 | 1024.1 |
| 20260902150926 | 18 | 346 | 3.2 | 3.2 | 0.00 | 0.00 | 0.00 | 89 | 1024.3 |
| 20260902150423 | 18 | 37 | 0.0 | 0.0 | 0.00 | 0.00 | 0.00 | 91 | 1024.6 |
| 20260902145923 | 19 | 236 | 0.0 | 0.0 | 0.00 | 0.00 | 0.00 | 91 | 1024.7 |
| 20260902145418 | 18 | 236 | 0.0 | 0.0 | 0.00 | 0.00 | 0.00 | 92 | 1024.9 |
| 20260902144913 | 18 | 357 | 0.0 | 0.0 | 0.00 | 0.00 | 0.00 | 92 | 1024.9 |
| 20260902144409 | 18 | 349 | 0.0 | 0.0 | 0.00 | 0.00 | 0.00 | 93 | 1024.8 |
| 20260902143909 | 18 | 359 | 0.0 | 0.0 | 0.00 | 0.00 | 0.00 | 93 | 1024.8 |
| 20260902143404 | 18 | 353 | 0.0 | 0.0 | 0.00 | 0.00 | 0.00 | 92 | 1025.0 |
| 20260902142859 | 18 | 342 | 0.0 | 1.6 | 0.00 | 0.00 | 0.00 | 88 | 1025.0 |
| 20260902142355 | 18 | 352 | 0.0 | 1.6 | 0.00 | 0.00 | 0.00 | 89 | 1024.8 |
| 20260902141850 | 18 | 348 | 0.0 | 0.0 | 0.00 | 0.00 | 0.00 | 95 | 1024.7 |
| 20260902141345 | 18 | 344 | 0.0 | 1.6 | 0.00 | 0.00 | 0.00 | 91 | 1024.4 |
| 20260902140845 | 18 | 347 | 0.0 | 0.0 | 0.00 | 0.00 | 0.00 | 94 | 1024.5 |
| 20260902140340 | 18 | 10 | 0.0 | 0.0 | 0.00 | 0.00 | 0.00 | 92 | 1024.4 |
| 20260902135834 | 18 | 191 | 1.6 | 1.6 | 0.00 | 0.00 | 0.00 | 91 | 1024.5 |
| 20260902135330 | 18 | 354 | 0.0 | 1.6 | 0.00 | 0.00 | 0.00 | 94 | 1024.5 |
| 20260902134829 | 18 | 350 | 0.0 | 0.0 | 0.00 | 0.00 | 0.00 | 94 | 1024.9 |
| 20260902134325 | 17 | 350 | 0.0 | 0.0 | 0.00 | 0.00 | 0.00 | 95 | 1024.6 |
| 20260902133820 | 17 | 354 | 0.0 | 0.0 | 0.00 | 0.00 | 0.00 | 96 | 1024.3 |
| 20260902133320 | 17 | 340 | 0.0 | 0.0 | 0.00 | 0.00 | 0.00 | 96 | 1024.4 |
| 20260902132815 | 17 | 292 | 0.0 | 1.6 | 0.00 | 0.00 | 0.00 | 93 | 1024.4 |
| 20260902132310 | 17 | 52 | 0.0 | 0.0 | 0.00 | 0.00 | 0.00 | 95 | 1024.4 |
| 20260902131805 | 17 | 350 | 4.8 | 8.0 | 0.00 | 0.00 | 0.00 | 93 | 1024.4 |
| 20260902131302 | 17 | 346 | 3.2 | 3.2 | 0.00 | 0.00 | 0.00 | 92 | 1024.4 |
| 20260902130801 | 17 | 205 | 1.6 | 3.2 | 0.00 | 0.00 | 0.00 | 94 | 1024.1 |
| 20260902130257 | 17 | 354 | 1.6 | 1.6 | 0.00 | 0.00 | 0.00 | 94 | 1024.2 |
| 20260902125752 | 17 | 18 | 0.0 | 0.0 | 0.00 | 0.00 | 0.00 | 96 | 1023.8 |
| 20260902125248 | 16 | 323 | 1.6 | 1.6 | 0.00 | 0.00 | 0.00 | 95 | 1024.0 |
| 20260902124744 | 16 | 255 | 1.6 | 3.2 | 0.00 | 0.00 | 0.00 | 94 | 1023.8 |
| 20260902124240 | 16 | 317 | 3.2 | 3.2 | 0.00 | 0.00 | 0.00 | 94 | 1024.0 |
| 20260902123735 | 16 | 352 | 4.8 | 8.0 | 0.00 | 0.00 | 0.00 | 93 | 1023.9 |
| 20260902123231 | 16 | 4 | 0.0 | 0.0 | 0.00 | 0.00 | 0.00 | 94 | 1023.9 |
| 20260902122729 | 16 | 55 | 0.0 | 0.0 | 0.00 | 0.00 | 0.00 | 94 | 1024.0 |
| 20260902122226 | 16 | 5 | 0.0 | 0.0 | 0.00 | 0.00 | 0.00 | 93 | 1024.1 |
| 20260902121725 | 16 | 337 | 1.6 | 1.6 | 0.00 | 0.00 | 0.00 | 93 | 1023.7 |
| 20260902121221 | 16 | 265 | 0.0 | 0.0 | 0.00 | 0.00 | 0.00 | 94 | 1023.8 |
| 20260902120716 | 16 | 303 | 3.2 | 3.2 | 0.00 | 0.00 | 0.00 | 93 | 1024.0 |
| 20260902120213 | 16 | 312 | 0.0 | 1.6 | 0.00 | 0.00 | 0.00 | 94 | 1023.7 |
| 20260902115712 | 16 | 298 | 0.0 | 0.0 | 0.00 | 0.00 | 0.00 | 96 | 1023.6 |
| 20260902115209 | 16 | 271 | 3.2 | 9.7 | 0.00 | 0.00 | 0.00 | 93 | 1023.7 |
| 20260902114704 | 16 | 185 | 0.0 | 1.6 | 0.00 | 0.00 | 0.00 | 92 | 1023.7 |
| 20260902114200 | 16 | 352 | 0.0 | 0.0 | 0.00 | 0.00 | 0.00 | 96 | 1023.4 |
| 20260902113655 | 16 | 298 | 1.6 | 3.2 | 0.00 | 0.00 | 0.00 | 95 | 1023.7 |
| 20260902113150 | 16 | 243 | 0.0 | 1.6 | 0.00 | 0.00 | 0.00 | 97 | 1023.8 |
| 20260902112649 | 16 | 265 | 0.0 | 0.0 | 0.00 | 0.00 | 0.00 | 98 | 1023.9 |
| 20260902112147 | 16 | 228 | 0.0 | 1.6 | 0.00 | 0.00 | 0.00 | 96 | 1024.2 |
| 20260902111642 | 16 | 3 | 3.2 | 3.2 | 0.00 | 0.00 | 0.00 | 96 | 1024.1 |
| 20260902111138 | 16 | 7 | 0.0 | 0.0 | 0.00 | 0.00 | 0.00 | 99 | 1024.1 |
| 20260902110633 | 15 | 356 | 0.0 | 0.0 | 0.00 | 0.00 | 0.00 | 99 | 1024.5 |
| 20260902110130 | 16 | 356 | 0.0 | 0.0 | 0.00 | 0.00 | 0.00 | 99 | 1024.6 |
| 20260902105629 | 16 | 356 | 0.0 | 0.0 | 0.00 | 0.00 | 0.00 | 99 | 1024.3 |
| 20260902105124 | 16 | 356 | 0.0 | 0.0 | 0.00 | 0.00 | 0.00 | 99 | 1024.1 |
| 20260902104619 | 16 | 357 | 0.0 | 0.0 | 0.00 | 0.00 | 0.00 | 99 | 1024.2 |
| 20260902104114 | 16 | 357 | 0.0 | 0.0 | 0.00 | 0.00 | 0.00 | 99 | 1024.1 |
| 20260902103614 | 16 | 357 | 0.0 | 0.0 | 0.00 | 0.00 | 0.00 | 99 | 1024.0 |
| 20260902103110 | 16 | 357 | 0.0 | 0.0 | 0.00 | 0.00 | 0.00 | 99 | 1024.2 |
| 20260902102606 | 16 | 2 | 0.0 | 0.0 | 0.00 | 0.00 | 0.00 | 99 | 1023.9 |
| 20260902102103 | 16 | 2 | 0.0 | 0.0 | 0.00 | 0.00 | 0.00 | 99 | 1024.1 |
| 20260902101558 | 16 | 2 | 0.0 | 0.0 | 0.00 | 0.00 | 0.00 | 99 | 1023.9 |
| 20260902101057 | 16 | 2 | 0.0 | 0.0 | 0.00 | 0.00 | 0.00 | 99 | 1023.9 |
| 20260902100551 | 16 | 2 | 0.0 | 0.0 | 0.00 | 0.00 | 0.00 | 99 | 1023.8 |
| 20260902100046 | 16 | 2 | 0.0 | 0.0 | 0.00 | 0.00 | 0.00 | 99 | 1023.7 |
| 20260902095540 | 16 | 2 | 0.0 | 0.0 | 0.00 | 0.00 | 0.00 | 99 | 1023.5 |
| 20260902095039 | 16 | 2 | 0.0 | 0.0 | 0.00 | 0.00 | 0.00 | 99 | 1023.2 |
| 20260902094535 | 16 | 2 | 0.0 | 0.0 | 0.00 | 0.00 | 0.00 | 99 | 1023.5 |
| 20260902094030 | 16 | 2 | 0.0 | 0.0 | 0.00 | 0.00 | 0.00 | 99 | 1023.4 |
| 20260902093524 | 16 | 2 | 0.0 | 0.0 | 0.00 | 0.00 | 0.00 | 99 | 1023.7 |
| 20260902093020 | 16 | 2 | 0.0 | 0.0 | 0.00 | 0.00 | 0.00 | 99 | 1023.6 |
| 20260902092514 | 16 | 2 | 0.0 | 0.0 | 0.00 | 0.00 | 0.00 | 99 | 1023.5 |
| 20260902092009 | 16 | 2 | 0.0 | 0.0 | 0.00 | 0.00 | 0.00 | 99 | 1023.5 |
| 20260902091504 | 16 | 2 | 0.0 | 0.0 | 0.00 | 0.00 | 0.00 | 99 | 1023.1 |
| 20260902091001 | 16 | 2 | 0.0 | 0.0 | 0.00 | 0.00 | 0.00 | 99 | 1023.4 |
| 20260902090456 | 16 | 2 | 0.0 | 0.0 | 0.00 | 0.00 | 0.00 | 99 | 1023.2 |
| 20260902085954 | 16 | 2 | 0.0 | 0.0 | 0.00 | 0.00 | 0.00 | 99 | 1023.2 |
| 20260902085450 | 16 | 2 | 0.0 | 0.0 | 0.00 | 0.00 | 0.00 | 99 | 1023.1 |
| 20260902084944 | 16 | 2 | 0.0 | 0.0 | 0.00 | 0.00 | 0.00 | 99 | 1022.9 |
| 20260902084442 | 16 | 2 | 0.0 | 0.0 | 0.00 | 0.00 | 0.00 | 99 | 1022.8 |
| 20260902083937 | 16 | 1 | 0.0 | 0.0 | 0.00 | 0.00 | 0.00 | 99 | 1022.9 |
| 20260902083436 | 16 | 2 | 0.0 | 0.0 | 0.00 | 0.00 | 0.00 | 99 | 1023.0 |
| 20260902082931 | 16 | 2 | 0.0 | 0.0 | 0.00 | 0.00 | 0.00 | 99 | 1023.1 |
| 20260902082427 | 16 | 2 | 0.0 | 0.0 | 0.00 | 0.00 | 0.00 | 99 | 1022.9 |
| 20260902081923 | 16 | 2 | 0.0 | 0.0 | 0.00 | 0.00 | 0.00 | 99 | 1023.0 |
| 20260902081420 | 16 | 2 | 0.0 | 0.0 | 0.00 | 0.00 | 0.00 | 99 | 1022.9 |
| 20260902080914 | 16 | 2 | 0.0 | 0.0 | 0.00 | 0.00 | 0.00 | 99 | 1022.7 |
| 20260902080410 | 16 | 2 | 0.0 | 0.0 | 0.00 | 0.00 | 0.00 | 99 | 1023.1 |
| 20260902075909 | 16 | 2 | 0.0 | 0.0 | 0.00 | 0.00 | 0.00 | 99 | 1023.1 |
| 20260902075406 | 16 | 2 | 0.0 | 0.0 | 0.00 | 0.00 | 0.00 | 99 | 1023.1 |
| 20260902074901 | 16 | 2 | 0.0 | 0.0 | 0.00 | 0.00 | 0.00 | 99 | 1023.3 |
| 20260902074357 | 16 | 2 | 0.0 | 0.0 | 0.00 | 0.00 | 0.00 | 99 | 1023.1 |
| 20260902073851 | 16 | 2 | 0.0 | 0.0 | 0.00 | 0.00 | 0.00 | 99 | 1023.2 |
| 20260902073348 | 16 | 2 | 0.0 | 0.0 | 0.00 | 0.00 | 0.00 | 99 | 1023.1 |
| 20260902072844 | 16 | 2 | 0.0 | 0.0 | 0.00 | 0.00 | 0.00 | 99 | 1022.8 |
| 20260902072339 | 16 | 2 | 0.0 | 0.0 | 0.00 | 0.00 | 0.00 | 99 | 1023.1 |
| 20260902071836 | 16 | 2 | 0.0 | 0.0 | 0.00 | 0.00 | 0.00 | 99 | 1023.0 |
| 20260902071329 | 16 | 2 | 0.0 | 0.0 | 0.00 | 0.00 | 0.00 | 99 | 1023.1 |
| 20260902070826 | 16 | 1 | 0.0 | 0.0 | 0.00 | 0.00 | 0.00 | 99 | 1023.0 |
| 20260902070326 | 16 | 346 | 0.0 | 0.0 | 0.00 | 0.00 | 0.00 | 99 | 1023.0 |
| 20260902065825 | 16 | 356 | 0.0 | 0.0 | 0.00 | 0.00 | 0.00 | 99 | 1023.4 |
| 20260902065320 | 16 | 356 | 0.0 | 0.0 | 0.00 | 0.00 | 0.00 | 99 | 1023.3 |
| 20260902064815 | 16 | 356 | 0.0 | 0.0 | 0.00 | 0.00 | 0.00 | 99 | 1023.3 |
| 20260902064312 | 16 | 356 | 0.0 | 0.0 | 0.00 | 0.00 | 0.00 | 99 | 1023.6 |
| 20260902063807 | 16 | 356 | 0.0 | 0.0 | 0.00 | 0.00 | 0.00 | 99 | 1023.4 |
| 20260902063307 | 16 | 5 | 0.0 | 0.0 | 0.00 | 0.00 | 0.00 | 99 | 1023.3 |
| 20260902062801 | 16 | 5 | 0.0 | 0.0 | 0.00 | 0.00 | 0.00 | 99 | 1023.4 |
| 20260902062256 | 16 | 5 | 0.0 | 0.0 | 0.00 | 0.00 | 0.00 | 99 | 1023.6 |
| 20260902061755 | 16 | 5 | 0.0 | 0.0 | 0.00 | 0.00 | 0.00 | 99 | 1023.3 |
| 20260902061250 | 16 | 5 | 0.0 | 0.0 | 0.00 | 0.00 | 0.00 | 99 | 1023.3 |
| 20260902060748 | 16 | 5 | 0.0 | 0.0 | 0.00 | 0.00 | 0.00 | 99 | 1023.4 |
| 20260902060243 | 16 | 5 | 0.0 | 0.0 | 0.00 | 0.00 | 0.00 | 99 | 1023.2 |
| 20260902055738 | 16 | 5 | 0.0 | 0.0 | 0.00 | 0.00 | 0.00 | 99 | 1023.5 |
| 20260902055234 | 16 | 5 | 0.0 | 0.0 | 0.00 | 0.00 | 0.00 | 99 | 1023.3 |
| 20260902054729 | 16 | 5 | 0.0 | 0.0 | 0.00 | 0.00 | 0.00 | 99 | 1022.9 |
| 20260902054225 | 16 | 5 | 0.0 | 0.0 | 0.00 | 0.00 | 0.00 | 99 | 1023.1 |
| 20260902053720 | 16 | 5 | 0.0 | 0.0 | 0.00 | 0.00 | 0.00 | 99 | 1022.8 |
| 20260902053220 | 16 | 7 | 0.0 | 0.0 | 0.00 | 0.00 | 0.00 | 99 | 1022.8 |
| 20260902052719 | 16 | 16 | 0.0 | 0.0 | 0.00 | 0.00 | 0.00 | 99 | 1022.8 |
| 20260902052215 | 16 | 16 | 0.0 | 0.0 | 0.00 | 0.00 | 0.00 | 99 | 1022.8 |
| 20260902051714 | 16 | 16 | 0.0 | 0.0 | 0.00 | 0.00 | 0.00 | 99 | 1022.7 |
| 20260902051209 | 16 | 353 | 0.0 | 0.0 | 0.00 | 0.00 | 0.00 | 99 | 1022.6 |
| 20260902050703 | 16 | 353 | 0.0 | 0.0 | 0.00 | 0.00 | 0.00 | 99 | 1022.6 |
| 20260902050159 | 16 | 353 | 0.0 | 0.0 | 0.00 | 0.00 | 0.00 | 99 | 1022.6 |
| 20260902045653 | 16 | 353 | 0.0 | 0.0 | 0.00 | 0.00 | 0.00 | 99 | 1022.6 |
| 20260902045149 | 16 | 352 | 0.0 | 0.0 | 0.00 | 0.00 | 0.00 | 99 | 1022.7 |
| 20260902044644 | 16 | 353 | 0.0 | 0.0 | 0.00 | 0.00 | 0.00 | 99 | 1022.4 |
| 20260902044140 | 16 | 353 | 0.0 | 0.0 | 0.00 | 0.00 | 0.00 | 99 | 1022.5 |
| 20260902043635 | 16 | 353 | 0.0 | 0.0 | 0.00 | 0.00 | 0.00 | 99 | 1022.5 |
| 20260902043130 | 16 | 28 | 0.0 | 0.0 | 0.00 | 0.00 | 0.00 | 99 | 1022.4 |
| 20260902042629 | 16 | 28 | 0.0 | 0.0 | 0.00 | 0.00 | 0.00 | 99 | 1022.4 |
| 20260902042125 | 16 | 28 | 0.0 | 0.0 | 0.00 | 0.00 | 0.00 | 99 | 1022.5 |
| 20260902041625 | 16 | 28 | 0.0 | 0.0 | 0.00 | 0.00 | 0.00 | 99 | 1022.5 |
| 20260902041119 | 16 | 28 | 0.0 | 0.0 | 0.00 | 0.00 | 0.00 | 99 | 1022.4 |
| 20260902040619 | 16 | 28 | 0.0 | 0.0 | 0.00 | 0.00 | 0.00 | 99 | 1022.1 |
| 20260902040114 | 16 | 7 | 0.0 | 0.0 | 0.00 | 0.00 | 0.00 | 99 | 1022.2 |
| 20260902035612 | 16 | 7 | 0.0 | 0.0 | 0.00 | 3.02 | 3.02 | 99 | 1022.1 |
| 20260902035108 | 16 | 7 | 0.0 | 0.0 | 0.00 | 3.02 | 3.02 | 99 | 1022.0 |
| 20260902034607 | 16 | 357 | 0.0 | 0.0 | 0.00 | 3.02 | 3.02 | 99 | 1021.6 |
| 20260902034101 | 16 | 3 | 0.0 | 0.0 | 0.00 | 3.02 | 3.02 | 99 | 1021.7 |
| 20260902033600 | 16 | 3 | 0.0 | 0.0 | 0.00 | 3.02 | 3.02 | 99 | 1021.8 |
| 20260902033055 | 16 | 3 | 0.0 | 0.0 | 0.00 | 3.02 | 3.02 | 99 | 1021.9 |
| 20260902032554 | 16 | 3 | 0.0 | 0.0 | 0.00 | 3.02 | 3.02 | 99 | 1021.7 |
| 20260902032049 | 16 | 3 | 0.0 | 0.0 | 0.00 | 3.02 | 3.02 | 99 | 1021.8 |
| 20260902031544 | 16 | 3 | 0.0 | 0.0 | 0.00 | 3.02 | 3.02 | 99 | 1021.9 |
| 20260902031040 | 16 | 3 | 0.0 | 0.0 | 0.00 | 3.02 | 3.02 | 99 | 1021.7 |
| 20260902030534 | 16 | 3 | 0.0 | 0.0 | 0.00 | 3.02 | 3.02 | 99 | 1021.6 |
| 20260902030034 | 16 | 3 | 0.0 | 0.0 | 0.00 | 3.02 | 3.02 | 99 | 1021.7 |
| 20260902025529 | 16 | 3 | 0.0 | 0.0 | 0.00 | 3.02 | 3.02 | 99 | 1021.6 |
| 20260902025024 | 16 | 3 | 0.0 | 0.0 | 0.00 | 3.02 | 3.02 | 99 | 1021.5 |
| 20260902024520 | 16 | 3 | 0.0 | 0.0 | 0.00 | 3.02 | 3.02 | 99 | 1021.7 |
| 20260902024020 | 16 | 3 | 0.0 | 0.0 | 0.00 | 3.02 | 3.02 | 99 | 1021.6 |
| 20260902023516 | 17 | 3 | 0.0 | 0.0 | 0.00 | 3.02 | 3.02 | 99 | 1021.6 |
| 20260902023016 | 16 | 4 | 0.0 | 0.0 | 0.00 | 3.02 | 3.02 | 99 | 1021.5 |
| 20260902022510 | 17 | 358 | 0.0 | 0.0 | 0.00 | 3.02 | 3.02 | 99 | 1021.4 |
| 20260902022006 | 17 | 358 | 0.0 | 0.0 | 0.00 | 3.02 | 3.02 | 99 | 1021.7 |
| 20260902021501 | 16 | 2 | 0.0 | 0.0 | 0.00 | 3.02 | 3.02 | 99 | 1021.8 |
| 20260902020956 | 17 | 2 | 0.0 | 0.0 | 0.00 | 3.02 | 3.02 | 99 | 1021.6 |
| 20260902020452 | 17 | 1 | 0.0 | 0.0 | 0.00 | 3.02 | 3.02 | 99 | 1021.7 |
| 20260902015947 | 17 | 1 | 0.0 | 0.0 | 0.00 | 3.02 | 3.02 | 99 | 1021.7 |
| 20260902015443 | 17 | 2 | 0.0 | 0.0 | 0.00 | 3.02 | 3.02 | 99 | 1021.6 |
| 20260902014938 | 17 | 2 | 0.0 | 0.0 | 0.00 | 3.02 | 3.02 | 99 | 1021.5 |
| 20260902014435 | 17 | 3 | 0.0 | 0.0 | 0.00 | 3.02 | 3.02 | 99 | 1021.8 |
| 20260902013934 | 17 | 2 | 0.0 | 0.0 | 0.00 | 3.02 | 3.02 | 99 | 1021.7 |
| 20260902013430 | 17 | 2 | 0.0 | 1.6 | 0.00 | 3.02 | 3.02 | 99 | 1021.9 |
| 20260902012925 | 17 | 7 | 0.0 | 0.0 | 0.00 | 3.02 | 3.02 | 99 | 1021.5 |
| 20260902012420 | 17 | 7 | 0.0 | 0.0 | 0.00 | 3.02 | 3.02 | 99 | 1021.2 |
| 20260902011916 | 17 | 7 | 0.0 | 0.0 | 0.00 | 3.02 | 3.02 | 99 | 1021.0 |
| 20260902011411 | 17 | 7 | 0.0 | 0.0 | 0.00 | 3.02 | 3.02 | 99 | 1020.9 |
| 20260902010910 | 17 | 14 | 0.0 | 0.0 | 0.00 | 3.02 | 3.02 | 99 | 1020.8 |
| 20260902010405 | 17 | 14 | 0.0 | 0.0 | 0.00 | 3.02 | 3.02 | 99 | 1020.9 |
| 20260902005905 | 17 | 14 | 0.0 | 0.0 | 0.00 | 3.02 | 3.02 | 99 | 1020.8 |
| 20260902005404 | 17 | 14 | 0.0 | 0.0 | 0.00 | 3.02 | 3.02 | 99 | 1020.6 |
| 20260902004900 | 17 | 16 | 0.0 | 0.0 | 0.00 | 3.02 | 3.02 | 99 | 1020.6 |
| 20260902004400 | 18 | 18 | 0.0 | 0.0 | 0.00 | 3.02 | 3.02 | 99 | 1020.6 |
| 20260902003855 | 18 | 17 | 0.0 | 0.0 | 0.00 | 3.02 | 3.02 | 99 | 1020.1 |
| 20260902003350 | 18 | 19 | 0.0 | 0.0 | 0.00 | 3.02 | 3.02 | 99 | 1020.3 |
| 20260902002846 | 18 | 18 | 0.0 | 0.0 | 0.00 | 3.02 | 3.02 | 99 | 1020.4 |
| 20260902002344 | 18 | 329 | 0.0 | 1.6 | 0.00 | 3.02 | 3.02 | 99 | 1020.4 |
| 20260902001840 | 18 | 350 | 1.6 | 1.6 | 0.00 | 3.02 | 3.02 | 99 | 1020.0 |
| 20260902001335 | 18 | 355 | 0.0 | 0.0 | 0.00 | 3.02 | 3.02 | 99 | 1020.0 |
| 20260902000830 | 18 | 356 | 0.0 | 0.0 | 0.00 | 3.02 | 3.02 | 99 | 1019.9 |
| 20260902000324 | 18 | 354 | 0.0 | 0.0 | 0.00 | 3.02 | 3.02 | 99 | 1020.0 |
| 20260901235820 | 18 | 2 | 0.0 | 0.0 | 0.00 | 3.02 | 3.02 | 99 | 1019.8 |
| 20260901235319 | 18 | 11 | 1.6 | 1.6 | 0.00 | 3.02 | 3.02 | 99 | 1020.0 |
| 20260901234814 | 18 | 9 | 0.0 | 0.0 | 0.00 | 3.02 | 3.02 | 99 | 1019.7 |
| 20260901234308 | 18 | 17 | 0.0 | 0.0 | 0.00 | 3.02 | 3.02 | 99 | 1019.9 |
| 20260901233804 | 18 | 3 | 0.0 | 0.0 | 0.00 | 3.02 | 3.02 | 99 | 1020.0 |
| 20260901233259 | 18 | 14 | 0.0 | 0.0 | 0.00 | 3.02 | 3.02 | 99 | 1020.1 |
| 20260901232755 | 18 | 15 | 1.6 | 1.6 | 0.00 | 3.02 | 3.02 | 99 | 1020.1 |
| 20260901232249 | 18 | 350 | 0.0 | 0.0 | 0.00 | 3.02 | 3.02 | 99 | 1019.9 |
| 20260901231746 | 18 | 356 | 0.0 | 1.6 | 0.00 | 3.02 | 3.02 | 99 | 1019.8 |
| 20260901231242 | 18 | 352 | 0.0 | 0.0 | 0.00 | 3.02 | 3.02 | 99 | 1019.9 |
| 20260901230738 | 18 | 359 | 0.0 | 0.0 | 0.00 | 3.02 | 3.02 | 99 | 1019.5 |
| 20260901230237 | 18 | 28 | 0.0 | 0.0 | 0.00 | 3.02 | 3.02 | 99 | 1019.6 |
| 20260901225733 | 18 | 350 | 0.0 | 0.0 | 0.00 | 3.02 | 3.02 | 99 | 1019.9 |
| 20260901225226 | 18 | 350 | 1.6 | 3.2 | 0.00 | 3.02 | 3.02 | 99 | 1019.9 |
| 20260901224722 | 19 | 23 | 1.6 | 3.2 | 0.00 | 3.02 | 3.02 | 99 | 1019.8 |
| 20260901224218 | 19 | 1 | 0.0 | 0.0 | 0.00 | 3.02 | 3.02 | 99 | 1019.9 |
| 20260901223714 | 19 | 21 | 0.0 | 0.0 | 0.00 | 3.02 | 3.02 | 99 | 1020.0 |
| 20260901223209 | 19 | 12 | 0.0 | 0.0 | 0.00 | 3.02 | 3.02 | 99 | 1019.9 |
| 20260901222705 | 20 | 355 | 0.0 | 0.0 | 0.00 | 3.02 | 3.02 | 99 | 1019.9 |
| 20260901222201 | 20 | 357 | 0.0 | 0.0 | 0.00 | 3.02 | 3.02 | 99 | 1019.8 |
| 20260901221657 | 20 | 352 | 0.0 | 0.0 | 0.00 | 3.02 | 3.02 | 99 | 1019.8 |
| 20260901221153 | 19 | 352 | 0.0 | 0.0 | 0.00 | 3.02 | 3.02 | 99 | 1019.8 |
| 20260901220652 | 20 | 3 | 0.0 | 0.0 | 0.00 | 3.02 | 3.02 | 99 | 1019.7 |
| 20260901220152 | 20 | 356 | 0.0 | 0.0 | 0.00 | 3.02 | 3.02 | 99 | 1019.4 |
| 20260901215650 | 20 | 347 | 0.0 | 0.0 | 0.00 | 3.02 | 3.02 | 99 | 1019.4 |
| 20260901215145 | 20 | 346 | 0.0 | 0.0 | 0.00 | 3.02 | 3.02 | 99 | 1019.2 |
| 20260901214642 | 20 | 346 | 0.0 | 0.0 | 0.00 | 3.02 | 3.02 | 99 | 1019.5 |
| 20260901214137 | 20 | 347 | 0.0 | 0.0 | 0.00 | 3.02 | 3.02 | 99 | 1019.6 |
| 20260901213636 | 20 | 347 | 0.0 | 0.0 | 0.00 | 3.02 | 3.02 | 99 | 1019.3 |
| 20260901213131 | 20 | 346 | 0.0 | 0.0 | 0.00 | 3.02 | 3.02 | 99 | 1019.4 |
| 20260901212631 | 20 | 346 | 0.0 | 0.0 | 0.00 | 3.02 | 3.02 | 99 | 1019.3 |
| 20260901212127 | 20 | 345 | 0.0 | 0.0 | 0.00 | 3.02 | 3.02 | 99 | 1019.4 |
| 20260901211622 | 20 | 345 | 0.0 | 0.0 | 0.00 | 3.02 | 3.02 | 99 | 1019.2 |
| 20260901211119 | 20 | 345 | 0.0 | 0.0 | 0.00 | 3.02 | 3.02 | 99 | 1019.2 |
| 20260901210614 | 20 | 345 | 0.0 | 0.0 | 0.00 | 3.02 | 3.02 | 99 | 1019.3 |
| 20260901210110 | 20 | 345 | 0.0 | 0.0 | 0.00 | 3.02 | 3.02 | 99 | 1019.2 |
| 20260901205605 | 20 | 345 | 0.0 | 0.0 | 0.00 | 3.02 | 3.02 | 99 | 1019.5 |
| 20260901205059 | 20 | 345 | 0.0 | 0.0 | 0.00 | 3.02 | 3.02 | 99 | 1019.4 |
| 20260901204556 | 20 | 345 | 0.0 | 0.0 | 0.00 | 3.02 | 3.02 | 99 | 1019.6 |
| 20260901204050 | 20 | 345 | 0.0 | 0.0 | 0.00 | 3.02 | 3.02 | 99 | 1019.2 |
| 20260901203544 | 20 | 345 | 0.0 | 0.0 | 0.00 | 3.02 | 3.02 | 99 | 1019.2 |
| 20260901203040 | 20 | 345 | 0.0 | 0.0 | 0.00 | 3.02 | 3.02 | 99 | 1019.3 |
| 20260901202534 | 20 | 345 | 0.0 | 0.0 | 0.00 | 3.02 | 3.02 | 99 | 1019.1 |
| 20260901202031 | 20 | 345 | 0.0 | 0.0 | 0.00 | 3.02 | 3.02 | 99 | 1019.2 |
| 20260901201526 | 20 | 345 | 0.0 | 0.0 | 0.18 | 3.02 | 3.02 | 99 | 1019.2 |
| 20260901201020 | 20 | 345 | 0.0 | 0.0 | 0.18 | 3.02 | 3.02 | 99 | 1019.1 |
| 20260901200520 | 20 | 345 | 0.0 | 0.0 | 0.00 | 3.00 | 3.00 | 99 | 1019.0 |
| 20260901200020 | 20 | 345 | 0.0 | 0.0 | 0.00 | 3.00 | 3.00 | 99 | 1019.1 |
| 20260901195518 | 20 | 345 | 0.0 | 0.0 | 0.00 | 3.00 | 3.00 | 99 | 1019.2 |
| 20260901195017 | 20 | 345 | 0.0 | 0.0 | 0.00 | 3.00 | 3.00 | 99 | 1019.1 |
| 20260901194512 | 20 | 345 | 0.0 | 0.0 | 0.00 | 3.00 | 3.00 | 99 | 1019.0 |
| 20260901194008 | 20 | 345 | 0.0 | 0.0 | 0.00 | 3.00 | 3.00 | 99 | 1019.1 |
| 20260901193507 | 20 | 345 | 0.0 | 0.0 | 0.00 | 3.00 | 3.00 | 99 | 1018.9 |
| 20260901193002 | 20 | 345 | 0.0 | 0.0 | 0.00 | 3.00 | 3.00 | 99 | 1019.0 |
| 20260901192457 | 20 | 345 | 0.0 | 0.0 | 0.00 | 3.00 | 3.00 | 99 | 1018.9 |
| 20260901191953 | 20 | 345 | 0.0 | 0.0 | 0.00 | 3.00 | 3.00 | 99 | 1019.0 |
| 20260901191449 | 20 | 345 | 0.0 | 0.0 | 0.00 | 3.00 | 3.00 | 99 | 1018.8 |
| 20260901190944 | 20 | 35 | 0.0 | 0.0 | 0.00 | 3.00 | 3.00 | 99 | 1018.8 |
| 20260901190440 | 20 | 36 | 0.0 | 0.0 | 0.00 | 3.00 | 3.00 | 99 | 1019.1 |
| 20260901185938 | 20 | 36 | 0.0 | 0.0 | 0.00 | 3.00 | 3.00 | 99 | 1019.0 |
| 20260901185438 | 20 | 36 | 0.0 | 0.0 | 0.00 | 3.00 | 3.00 | 99 | 1018.7 |
| 20260901184937 | 20 | 36 | 0.0 | 0.0 | 0.13 | 3.00 | 3.00 | 99 | 1019.1 |
| 20260901184432 | 21 | 37 | 0.0 | 0.0 | 0.13 | 3.00 | 3.00 | 99 | 1018.9 |
| 20260901183928 | 21 | 349 | 0.0 | 0.0 | 0.00 | 2.97 | 2.97 | 99 | 1019.0 |
| 20260901183427 | 21 | 11 | 0.0 | 0.0 | 0.00 | 2.97 | 2.97 | 99 | 1019.0 |
| 20260901182923 | 21 | 11 | 0.0 | 0.0 | 0.18 | 2.97 | 2.97 | 99 | 1018.9 |
| 20260901182419 | 21 | 11 | 0.0 | 0.0 | 0.36 | 2.97 | 2.97 | 99 | 1018.8 |
| 20260901181913 | 20 | 11 | 0.0 | 0.0 | 0.48 | 2.95 | 2.95 | 99 | 1019.1 |
| 20260901181408 | 20 | 11 | 0.0 | 0.0 | 1.19 | 2.92 | 2.92 | 99 | 1018.9 |
| 20260901180907 | 20 | 11 | 0.0 | 0.0 | 1.85 | 2.90 | 2.90 | 99 | 1019.0 |
| 20260901180401 | 20 | 11 | 0.0 | 0.0 | 1.37 | 2.74 | 2.74 | 99 | 1018.9 |
| 20260901175859 | 20 | 338 | 0.0 | 0.0 | 0.43 | 2.59 | 2.59 | 99 | 1018.9 |
| 20260901175354 | 20 | 338 | 0.0 | 0.0 | 0.00 | 2.51 | 2.51 | 99 | 1018.9 |
| 20260901174849 | 20 | 338 | 0.0 | 0.0 | 0.00 | 2.51 | 2.51 | 99 | 1018.9 |
| 20260901174345 | 20 | 338 | 0.0 | 0.0 | 0.30 | 2.51 | 2.51 | 99 | 1018.8 |
| 20260901173840 | 21 | 338 | 0.0 | 0.0 | 0.79 | 2.51 | 2.51 | 99 | 1018.8 |
| 20260901173335 | 20 | 338 | 0.0 | 0.0 | 2.29 | 2.46 | 2.46 | 99 | 1018.6 |
| 20260901172832 | 20 | 338 | 0.0 | 0.0 | 2.87 | 2.39 | 2.39 | 99 | 1018.8 |
| 20260901172331 | 20 | 6 | 0.0 | 0.0 | 1.68 | 2.13 | 2.13 | 99 | 1018.7 |
| 20260901171829 | 20 | 8 | 0.0 | 0.0 | 0.71 | 1.88 | 1.88 | 99 | 1018.7 |
| 20260901171328 | 20 | 8 | 0.0 | 0.0 | 1.37 | 1.85 | 1.85 | 99 | 1018.8 |
| 20260901170827 | 20 | 9 | 0.0 | 0.0 | 0.89 | 1.78 | 1.78 | 99 | 1018.9 |
| 20260901170322 | 20 | 8 | 0.0 | 0.0 | 0.00 | 1.63 | 1.63 | 99 | 1019.0 |
| 20260901165821 | 21 | 9 | 0.0 | 0.0 | 0.18 | 1.63 | 1.63 | 99 | 1018.7 |
| 20260901165316 | 21 | 8 | 0.0 | 0.0 | 0.30 | 1.63 | 1.63 | 99 | 1018.6 |
| 20260901164813 | 21 | 8 | 0.0 | 0.0 | 1.80 | 1.60 | 1.60 | 99 | 1018.5 |
| 20260901164308 | 21 | 8 | 0.0 | 0.0 | 1.68 | 1.57 | 1.57 | 99 | 1018.8 |